Home > Weather > Maldonado > Past weeks

Flag for Uruguay Past Weather in Maldonado, Uruguay — Yesterday and Last 2 Weeks

Now
55 °F

Heavy rain. Low clouds.


Feels Like: 55 °F
Forecast: 52 / 58 °F
Wind: 3 mph from Southeast

Location: Capitan Corbeta

Current Time: Jun 28, 2016 at 12:03:33 PM

Latest Report: Jun 28, 2016 at 11:00 AM


Visibility: 1 mi

Pressure: 30.24 "Hg

Humidity: 94%

Dew Point: 54 °F

Location of MaldonadoLocation

Past Weather in Maldonado — Graph

°F

Maldonado Temperature Yesterday

Maximum temperature yesterday: 64 °F (at 3:00 PM)
Minimum temperature yesterday: 54 °F (at 12:00 AM)
Average temperature yesterday: 58 °F

High & Low Weather Summary for the Past Weeks

 TemperatureHumidityPressure
High66 °F (Jun 23, 12:00 AM)100% (Jun 15, 2:00 AM)30.48 "Hg (Jun 15, 2:00 AM)
Low34 °F (Jun 21, 8:00 AM)46% (Jun 23, 12:00 AM)30.15 "Hg (Jun 17, 6:00 AM)
Average50 °F86%30.27 "Hg
* Reported Jun 13 11:00 AM — Jun 28 11:00 AM, Maldonado, Weather by CustomWeather, © 2016

Note: Actual official high and low records may vary slightly from our data, if they occured in-between our weather recording intervals... More about our weather records

Advertising

Maldonado Weather History for the Previous 24 Hours

Scroll right to see more
 ConditionsComfort  
Time TempWeatherWind HumidityBarometerVisibility
11:00 AM
Tue, Jun 28
55 °FHeavy rain. Low clouds.3 mph94%30.24 "Hg1 mi
10:00 AM55 °FRain. Mostly cloudy.9 mph94%30.24 "Hg4 mi
9:00 AM59 °FRain. Mostly cloudy.7 mph94%30.21 "Hg2 mi
8:00 AM57 °FDrizzle. Cloudy.5 mph94%30.21 "Hg2 mi
7:00 AM57 °FMore clouds than sun.5 mph94%30.21 "HgN/A
6:00 AM57 °FMostly cloudy.3 mph94%30.18 "HgN/A
5:00 AM59 °FMostly cloudy.7 mph94%30.18 "HgN/A
4:00 AM61 °FMostly cloudy.9 mph94%30.21 "HgN/A
3:00 AM61 °FFog.10 mph94%30.18 "Hg3 mi
2:00 AM61 °FFog.10 mph94%30.21 "Hg3 mi
1:00 AM59 °FFog.9 mph94%30.24 "Hg5 mi
12:00 AM61 °FDrizzle. Mostly cloudy.13 mph94%30.24 "Hg5 mi
11:00 PM
Mon, Jun 27
59 °FDrizzle. Mostly cloudy.8 mph94%30.24 "Hg4 mi
10:00 PM59 °FMostly cloudy.7 mph94%30.24 "Hg5 mi
9:00 PM59 °FRain. Mostly cloudy.9 mph94%30.30 "Hg3 mi
8:00 PM59 °FLow clouds.7 mph94%30.27 "Hg5 mi
7:00 PM59 °FLow clouds.8 mph94%30.27 "Hg5 mi
6:00 PM59 °FRain. Mostly cloudy.12 mph94%30.27 "Hg1 mi
5:00 PM61 °FLight rain. Low clouds.10 mph88%30.27 "Hg1 mi
4:00 PM63 °FDrizzle. Mostly cloudy.12 mph88%30.27 "Hg2 mi
3:00 PM64 °FDrizzle. Mostly cloudy.13 mph88%30.27 "Hg2 mi
1:00 PM59 °FLow clouds.13 mph88%30.30 "Hg5 mi
12:00 PM59 °FOvercast.13 mph88%30.33 "Hg5 mi
Weather by CustomWeather, © 2016

See weather overviewHow to use our weather pages